Wind_Speed
22 22 22 23 23 23 22 22 22 22 23 23 23 23 23 23 23 23 23 24 24 24 25 25 25 26 28 29 30 30 30 30 31 32 32 31 31 31 31 31 31 32 32 33 32 31 31 30 29 28 27 26 25 25 24 24 24 24 23 23 23 23 23 23 24 24 24 24 25
23 23 22 23 23 23 23 22 22 23 24 23 23 23 23 22 22 23 24 24 25 25 25 25 26 27 29 30 30 30 30 30 31 31 31 31 30 31 31 31 32 33 33 33 32 32 32 31 31 29 27 25 24 24 24 23 23 23 23 24 23 23 23 23 23 24 24 24 24
23 23 23 23 24 24 23 23 24 25 25 24 22 22 22 22 22 23 24 25 25 25 25 26 27 28 29 29 29 30 30 30 31 31 30 30 30 31 31 32 33 33 33 33 32 32 33 33 31 29 26 24 23 23 23 23 23 23 23 23 23 22 22 22 23 23 23 23 22
23 23 23 23 24 24 24 24 25 25 25 24 23 22 22 22 23 24 25 26 26 26 26 26 27 28 28 29 30 31 30 30 30 30 30 30 30 30 31 32 33 34 34 33 33 33 34 34 32 29 26 24 23 23 23 23 23 22 22 22 21 21 22 23 23 22 22 22 21
24 24 23 24 24 24 24 24 24 25 24 23 22 22 23 23 24 25 26 26 26 26 26 27 28 28 28 29 31 31 30 30 29 29 29 30 30 30 31 32 33 33 34 33 33 34 34 34 32 28 26 24 23 22 22 23 22 22 22 21 21 21 22 23 23 23 22 21 19
24 24 24 24 24 24 24 24 24 24 24 23 22 23 24 25 25 26 26 26 26 26 27 27 27 28 29 30 31 30 30 29 28 28 29 30 30 30 31 32 33 33 33 33 33 34 34 34 30 27 26 25 23 22 21 22 22 22 22 22 22 22 23 23 24 23 21 19 17
24 24 24 24 24 24 24 25 25 24 23 22 23 24 25 26 27 27 27 27 26 26 26 26 27 28 29 31 30 30 29 28 28 28 29 29 29 30 30 31 32 32 33 33 33 33 33 32 28 25 25 24 24 23 23 22 22 22 23 24 24 24 24 24 23 21 18 17 17
23 24 24 24 24 24 25 25 25 24 23 22 23 25 26 27 27 28 27 27 26 26 26 27 28 29 30 30 30 29 28 28 28 28 29 29 29 29 30 30 31 32 32 32 32 32 32 30 27 25 25 24 23 23 25 25 23 22 22 23 26 26 25 24 21 18 16 15 15
24 24 24 24 24 25 25 25 25 24 23 23 24 25 26 27 27 27 27 26 26 27 27 27 28 29 29 30 29 28 27 27 27 28 29 29 29 29 29 29 30 32 32 31 31 31 30 29 27 26 25 24 23 24 25 26 25 23 21 20 21 22 22 19 16 14 13 13 12
24 24 25 25 25 25 25 25 24 24 23 23 24 26 27 27 27 27 26 26 27 27 28 28 28 29 29 29 29 28 27 26 27 28 28 28 28 29 29 29 30 31 32 31 30 30 29 27 27 26 26 25 24 24 26 26 26 25 23 21 19 16 13 10 9 10 11 11 11
24 25 25 25 25 26 26 25 24 23 23 23 24 26 27 27 27 27 27 27 28 28 28 28 28 28 28 28 28 28 27 27 27 27 28 29 29 28 28 28 29 30 31 31 30 29 28 27 27 27 27 26 25 25 26 26 26 25 24 23 22 20 18 15 13 12 10 10 10
24 25 25 25 25 26 26 25 24 23 23 23 25 26 27 27 28 28 28 29 29 28 28 28 28 28 28 28 28 28 28 27 27 27 28 28 29 28 28 29 29 30 31 31 30 28 27 27 27 27 27 26 24 24 25 26 26 25 25 24 23 21 20 19 18 15 13 11 10
24 24 25 25 26 26 25 25 24 23 23 24 25 26 27 27 28 28 28 29 29 29 28 28 28 27 27 28 29 29 28 28 27 27 27 28 28 28 28 29 30 30 30 30 30 29 28 27 27 27 26 25 23 23 24 24 25 25 24 24 24 23 22 21 20 18 16 14 12
24 24 25 25 26 25 25 25 24 23 24 25 26 27 28 28 28 28 29 29 29 29 29 28 28 28 28 28 29 29 29 28 27 27 27 28 28 28 28 29 30 30 30 30 31 30 28 27 27 26 25 24 23 22 23 23 23 24 24 24 23 23 23 22 21 19 18 17 15
24 24 25 25 26 25 25 25 24 24 24 25 27 28 28 28 29 29 30 30 30 30 29 29 29 28 28 27 28 28 28 27 27 27 27 28 29 29 29 30 30 30 31 31 32 31 28 27 26 25 24 23 22 21 21 22 22 23 23 23 23 23 23 23 22 20 19 18 17
24 25 25 25 26 26 26 25 24 24 25 26 28 28 29 29 30 30 31 31 31 30 30 30 30 29 28 27 27 28 28 27 27 27 28 29 30 31 31 31 31 31 31 31 31 30 28 26 24 23 23 22 21 20 20 21 21 22 22 23 23 23 23 23 23 21 20 19 18
25 25 26 26 26 26 26 26 25 25 26 27 28 29 29 29 30 31 32 32 31 32 32 32 31 30 28 28 27 27 27 28 28 28 29 30 30 31 32 32 32 31 31 31 31 30 28 24 22 22 21 20 20 19 20 20 21 21 22 23 23 24 24 24 24 23 22 20 19
25 26 26 27 27 27 27 27 26 27 27 28 29 29 30 30 31 32 33 33 33 33 33 34 32 30 29 28 28 27 27 28 28 29 29 30 30 31 32 32 32 32 32 31 31 29 26 22 20 20 19 19 19 19 19 20 21 21 22 23 24 25 25 26 26 25 23 22 20
26 26 27 27 27 27 28 27 28 28 28 29 29 30 30 31 32 33 34 35 34 34 33 33 32 31 29 28 28 28 27 28 28 29 30 30 30 31 31 32 32 33 33 32 31 28 22 18 18 18 18 18 18 18 19 20 21 22 22 23 23 24 25 25 26 26 25 23 22
26 27 27 27 28 28 28 28 28 28 29 29 30 30 31 32 32 34 35 36 35 34 33 33 32 30 29 29 28 28 28 27 28 29 30 30 30 31 31 32 33 34 35 34 32 25 18 14 15 17 17 16 17 18 20 20 21 22 22 23 23 23 24 24 25 26 26 26 25
27 27 28 28 28 28 28 28 28 29 29 29 30 30 31 32 33 34 35 35 35 34 33 32 31 30 29 28 28 29 28 28 28 29 30 30 30 31 31 32 33 34 36 36 33 22 13 12 15 17 17 17 17 19 20 20 21 22 22 23 23 23 23 24 24 25 26 27 27
27 28 28 27 28 28 28 28 29 29 29 30 30 30 31 32 33 34 35 36 35 34 33 32 30 29 28 28 28 29 29 29 29 29 30 30 30 31 31 32 33 34 36 37 33 19 10 13 17 19 18 18 18 19 20 20 21 22 23 23 23 23 24 24 24 25 26 27 27
28 28 28 27 28 28 28 28 29 29 29 30 30 30 30 32 34 35 36 36 35 34 33 31 30 29 28 28 28 29 30 30 30 30 30 30 30 30 31 31 32 33 35 38 32 18 10 16 19 21 20 19 19 19 20 20 21 22 23 23 24 24 24 25 25 26 27 27 28
28 28 28 28 28 28 28 28 29 29 29 30 30 30 30 32 34 36 37 36 36 35 33 32 30 29 28 28 29 30 30 30 30 31 31 31 31 31 31 31 31 32 35 36 32 20 12 16 19 20 20 20 19 19 19 20 21 22 22 23 24 24 24 25 26 26 27 28 28
27 27 27 27 28 28 28 28 28 29 30 30 29 29 30 33 35 36 36 36 36 35 33 31 30 29 28 28 29 30 30 30 30 30 30 31 30 30 30 30 30 31 33 34 35 24 15 16 17 19 20 20 19 19 19 20 21 21 22 23 23 23 24 25 26 27 27 28 28
27 27 28 28 28 28 28 28 29 29 30 30 29 29 31 34 36 36 36 36 35 34 33 30 29 28 27 28 30 31 31 30 30 29 29 29 29 30 30 30 30 30 32 34 37 26 15 16 16 17 18 19 19 19 19 20 21 22 22 23 23 23 23 24 25 26 27 27 28
27 27 28 28 28 28 28 28 29 29 30 29 28 29 32 35 36 36 36 35 35 33 31 29 28 27 27 27 29 31 31 30 30 29 28 28 28 29 30 30 31 31 32 34 37 28 18 16 15 15 16 18 18 18 19 20 21 22 23 23 23 23 23 23 24 25 26 26 27
27 27 27 27 28 28 28 28 29 29 29 28 29 30 33 35 36 36 35 35 34 32 30 28 28 27 26 27 29 30 31 30 29 28 28 27 28 28 29 30 31 32 32 33 36 31 22 15 14 14 14 16 17 18 19 20 21 22 22 23 23 23 23 22 23 23 24 24 25
26 27 27 27 27 28 28 29 29 29 28 28 29 31 34 35 36 35 35 34 32 30 28 28 28 27 27 27 29 30 30 30 29 28 27 27 27 27 28 29 31 32 32 33 35 35 29 17 13 12 13 14 15 17 18 19 20 21 22 22 23 23 22 22 22 22 22 23 23
26 27 27 27 27 28 28 28 28 28 28 28 30 32 34 35 35 34 34 32 30 28 28 28 28 28 28 28 29 29 30 29 28 28 27 27 27 27 28 28 30 31 32 33 34 36 33 23 14 10 11 12 14 15 16 18 19 20 21 21 22 22 21 21 21 21 21 21 21
26 27 26 27 27 27 28 28 28 28 27 28 30 32 33 34 34 33 32 30 29 28 29 29 29 29 29 29 29 29 29 29 28 27 27 27 27 27 27 28 29 30 31 32 33 35 35 31 16 9 9 11 12 13 14 16 18 19 20 20 20 20 20 20 20 19 20 20 20
26 26 26 27 27 27 28 28 28 27 27 28 30 31 33 33 33 32 31 29 28 28 29 30 30 29 29 29 30 30 30 29 28 27 27 27 27 27 26 26 28 29 29 31 32 33 35 35 19 9 8 10 11 12 13 15 17 18 18 19 19 19 20 19 19 18 18 19 19
27 26 26 26 27 27 28 28 27 27 27 28 29 31 32 33 33 32 31 29 28 28 29 29 28 28 28 28 29 29 29 28 28 28 28 27 27 26 26 26 27 27 28 30 31 32 34 35 20 11 9 11 11 12 13 15 16 16 17 17 18 19 20 20 18 17 17 18 18
27 26 26 27 27 27 28 28 27 27 27 28 29 30 32 33 32 32 31 29 28 29 29 28 28 27 27 28 28 28 28 27 28 28 28 28 27 26 25 25 26 27 28 28 29 31 32 31 21 13 10 11 12 13 14 15 15 15 15 15 16 19 20 21 19 17 16 17 18
28 27 27 27 27 27 28 28 27 26 27 27 29 30 31 32 31 30 29 29 29 30 30 29 28 27 27 28 28 28 27 27 28 28 28 28 27 26 26 25 27 27 27 27 28 29 30 28 20 14 12 12 13 14 14 14 15 15 14 15 16 19 21 22 20 17 16 16 18
28 27 27 27 27 27 27 27 26 26 26 27 28 29 31 32 31 30 29 28 29 30 30 29 28 28 28 28 28 27 26 27 27 28 28 28 27 26 26 26 28 28 27 26 27 28 28 26 17 14 13 13 13 14 14 14 14 14 14 14 17 20 22 24 23 20 17 16 18
29 28 28 28 28 27 27 26 26 26 26 27 28 29 29 30 30 29 28 27 28 29 29 29 28 27 27 27 27 26 25 26 27 28 28 28 28 27 27 27 28 29 28 26 26 27 27 25 16 14 14 13 13 14 14 14 14 13 14 15 17 20 23 25 26 24 20 18 20
30 29 28 28 28 27 26 26 26 26 26 27 27 28 28 29 28 28 28 27 27 28 28 28 27 26 27 27 26 25 25 25 26 27 28 28 28 27 27 27 29 30 29 27 26 26 26 25 15 13 14 13 13 13 14 14 13 13 14 15 17 20 22 24 27 27 24 21 21
30 29 29 28 28 27 26 25 25 25 25 26 27 28 28 28 27 28 28 27 27 27 27 26 26 26 27 26 24 23 24 26 27 27 28 28 28 28 28 28 30 31 30 28 26 25 26 25 15 12 13 12 12 12 13 13 13 13 14 15 17 19 21 23 25 27 27 25 24
29 29 29 28 28 27 26 24 24 24 25 26 27 27 27 27 27 28 29 27 27 26 26 25 26 26 26 25 22 22 24 26 27 28 28 29 29 28 28 30 30 31 32 31 27 26 25 24 14 10 11 10 10 12 13 13 13 13 14 15 16 17 19 21 23 24 25 26 25
29 29 29 28 28 27 25 24 23 24 25 26 27 26 26 27 29 30 29 27 27 26 25 25 26 27 26 24 21 21 23 26 27 28 28 29 29 29 29 30 31 32 33 33 31 28 27 25 16 10 9 9 10 11 12 12 13 14 14 14 15 16 17 19 20 21 22 23 23
Wind_Direction
343 344 344 344 343 341 339 338 337 336 335 333 331 330 329 329 329 329 329 328 326 324 321 320 319 319 320 321 321 321 322 323 325 326 327 327 327 327 327 327 327 326 325 323 321 320 319 316 312 307 301 294 288 283 279 276 275 274 273 273 272 273 273 271 270 269 268 267 266
342 343 344 344 343 342 340 338 337 336 335 333 331 330 330 330 330 330 329 327 325 322 320 319 319 319 319 320 321 321 322 323 324 326 327 327 328 329 329 329 329 328 327 325 325 324 322 320 316 311 304 297 290 284 279 276 273 272 272 272 273 273 272 271 270 269 269 268 269
342 343 344 344 343 343 341 339 337 336 335 333 332 331 332 332 331 330 328 326 324 322 320 320 319 319 320 320 321 321 322 322 324 326 327 327 328 330 331 331 330 330 330 328 328 327 325 323 320 314 308 300 292 285 281 277 274 272 272 272 273 272 271 270 269 268 268 268 269
342 343 343 343 343 342 341 339 337 336 335 334 333 333 332 333 331 330 328 326 324 323 322 321 320 320 321 321 322 322 322 323 325 327 327 328 329 330 331 333 332 332 332 330 329 329 329 328 325 321 316 310 300 291 284 280 276 272 271 272 272 272 270 269 269 269 268 267 268
342 342 342 341 341 340 339 338 336 335 335 334 334 334 334 334 332 331 329 327 325 323 322 321 321 322 322 323 323 323 322 323 327 328 328 329 329 331 332 333 334 334 334 333 331 331 332 332 330 328 327 325 318 306 294 287 280 275 272 271 271 270 270 269 269 269 269 268 269
340 340 340 340 339 339 338 337 336 335 335 334 334 334 335 334 333 332 330 327 325 323 323 323 323 323 324 324 324 323 323 324 327 328 329 329 330 331 333 334 335 336 335 334 333 334 335 336 334 334 335 335 331 324 314 301 289 279 274 272 271 271 270 269 269 270 270 268 268
339 338 338 338 338 338 337 337 336 336 335 335 335 335 335 334 333 331 330 328 326 325 325 325 325 324 325 324 324 323 323 325 328 329 329 330 330 332 333 334 336 336 336 336 335 335 336 338 338 338 339 340 339 338 334 325 310 295 282 276 273 271 270 271 272 272 269 266 268
337 337 337 337 337 337 336 336 335 335 335 335 335 335 335 334 333 332 331 330 329 327 326 326 325 325 325 325 324 323 323 326 328 330 330 330 330 332 334 335 336 337 338 337 336 336 337 338 339 340 341 342 343 344 345 343 335 321 305 290 280 275 272 272 272 268 264 265 271
336 336 336 336 336 336 336 335 335 335 334 334 335 335 335 335 334 334 333 331 329 328 327 326 326 327 327 326 325 324 323 326 328 330 330 331 331 332 333 335 336 338 339 339 338 337 337 338 339 341 342 343 345 347 350 351 350 346 338 323 306 291 281 275 268 264 264 270 278
335 335 336 336 336 335 335 335 335 335 334 334 335 336 336 336 336 335 333 331 329 328 328 327 327 328 328 327 325 323 323 325 328 330 330 330 331 332 334 335 336 337 339 340 339 338 337 337 338 340 341 344 347 351 355 357 357 357 356 353 347 341 330 313 298 287 283 284 290
334 335 335 335 335 335 335 335 335 335 334 334 335 336 337 337 337 336 334 332 331 329 329 329 329 328 328 327 326 325 323 325 328 329 329 329 330 331 333 334 336 337 339 340 340 339 338 337 337 338 340 344 349 354 358 0 1 1 1 360 359 357 355 349 341 330 319 311 307
335 335 335 335 335 335 335 335 335 335 335 335 336 337 337 337 337 337 336 335 333 331 330 330 329 329 328 328 328 326 325 324 326 328 328 328 329 330 332 335 336 337 339 340 341 340 337 335 336 337 339 343 349 356 0 3 5 4 2 1 359 357 354 351 348 344 339 332 324
335 335 336 336 336 336 336 336 335 335 335 336 336 337 337 337 337 337 337 336 334 333 331 331 330 330 329 329 329 328 327 325 325 326 327 327 328 330 332 334 336 337 338 340 341 340 338 335 335 336 337 341 346 354 1 5 7 7 5 3 2 360 357 353 351 347 343 338 332
337 337 337 337 337 337 337 337 335 335 335 336 336 337 337 337 338 338 338 336 335 334 332 332 331 331 330 330 330 330 329 328 326 325 326 327 328 330 333 334 336 337 337 338 340 341 339 336 336 336 337 339 343 351 0 6 9 9 8 6 4 2 360 357 354 351 347 342 338
338 338 338 338 338 338 337 337 336 336 335 336 336 336 337 337 338 338 338 337 336 335 334 333 332 331 331 331 331 332 332 330 328 326 326 326 329 332 334 335 336 336 336 337 338 340 340 338 336 336 337 338 342 349 359 6 9 10 10 9 7 5 3 0 358 355 351 345 341
339 339 339 339 338 338 338 337 337 336 336 335 335 336 337 337 338 338 338 337 336 335 335 334 333 333 332 332 332 333 333 332 330 328 328 328 330 333 336 337 336 335 335 335 336 337 339 339 337 337 337 339 343 350 358 5 9 11 10 11 10 9 6 4 2 359 355 350 345
339 339 339 339 339 339 338 338 337 336 335 335 335 336 337 337 338 338 338 337 336 336 335 335 335 334 333 332 333 333 333 333 332 330 329 329 331 334 336 336 335 334 333 334 334 335 337 339 339 339 339 342 347 353 359 6 10 11 11 12 13 12 11 9 6 3 358 354 350
340 339 339 339 339 339 338 338 337 336 336 335 335 336 337 338 338 338 337 338 337 336 336 336 337 336 334 333 333 333 333 333 332 330 329 330 332 334 335 334 334 333 333 333 333 333 335 338 339 341 342 345 351 357 3 8 12 13 14 14 15 15 15 13 11 8 3 358 355
340 339 339 339 339 338 338 338 337 336 336 335 335 335 337 338 338 338 338 338 338 337 336 336 337 336 335 334 333 333 333 332 331 330 330 331 333 334 335 334 334 334 334 334 333 334 338 341 342 343 345 349 354 1 7 11 14 15 16 17 17 17 17 17 15 12 8 3 0
340 339 339 338 338 338 338 337 336 335 335 334 335 336 337 338 339 339 338 338 337 337 337 337 337 336 335 335 334 333 333 333 331 330 331 333 335 336 336 335 335 335 335 335 335 338 344 349 349 350 352 354 359 4 8 11 14 17 18 18 18 18 19 19 18 16 13 10 7
340 339 338 338 338 337 337 336 335 335 334 334 335 336 338 339 339 339 338 338 338 338 338 338 337 336 335 334 334 334 334 333 332 332 333 335 336 337 337 337 337 337 337 337 339 343 355 3 2 1 2 3 6 9 10 11 13 16 19 20 20 20 21 22 21 20 18 15 12
340 339 338 337 338 337 336 335 335 335 334 335 335 337 338 339 339 339 338 339 339 339 339 339 338 337 335 334 334 334 335 335 334 334 335 337 338 338 338 339 340 339 338 339 341 347 10 18 13 10 10 10 12 13 13 12 13 16 19 21 22 23 24 24 25 24 22 20 16
339 339 338 337 337 337 336 335 335 335 335 335 337 338 338 339 339 339 339 340 340 341 341 340 339 338 336 335 335 336 336 336 336 337 338 340 339 339 340 341 342 341 339 340 341 348 21 25 16 13 13 14 15 15 15 14 15 17 20 22 24 25 25 26 27 28 27 24 21
339 339 338 338 338 338 337 336 336 336 336 336 337 338 339 340 340 340 340 341 341 342 342 342 341 339 337 337 337 338 338 338 337 338 340 341 341 341 341 343 343 342 340 340 341 349 17 24 17 12 13 15 16 17 16 17 18 20 21 23 24 24 25 27 29 30 30 28 25
339 339 339 339 338 338 338 338 337 337 337 337 338 339 340 340 340 340 341 341 342 343 343 343 342 340 339 338 339 340 340 339 338 338 339 341 342 342 342 343 344 343 341 339 343 353 18 25 18 13 12 14 16 18 18 19 21 23 24 24 24 23 24 26 29 31 31 30 28
340 340 340 340 340 340 340 339 339 338 338 338 339 340 341 341 341 341 341 341 342 343 344 343 342 341 340 339 340 341 341 341 340 339 340 340 341 342 342 342 342 343 341 339 346 359 25 27 22 15 13 14 18 20 21 21 24 25 26 26 25 24 24 25 28 30 31 31 30
340 341 341 341 341 341 340 340 339 339 339 340 341 341 341 341 341 341 342 342 343 344 344 343 341 341 340 339 340 340 341 341 340 340 340 340 341 342 342 342 342 342 341 340 348 0 20 23 21 17 15 15 20 23 24 24 25 26 26 26 26 25 25 25 27 29 31 31 31
341 341 341 341 341 341 341 340 340 340 341 341 342 341 341 341 341 342 342 343 344 344 343 342 341 341 341 340 340 340 340 341 341 340 341 341 342 342 342 341 342 342 341 340 345 355 7 15 18 18 18 17 21 26 29 28 27 26 26 25 26 26 26 27 28 30 31 31 31
341 341 341 341 341 341 341 341 341 341 342 342 342 341 341 341 342 343 343 344 344 343 342 341 340 341 340 340 340 340 341 341 341 341 341 341 342 343 342 342 342 342 342 341 343 350 358 6 13 18 20 20 22 26 30 30 28 26 25 25 26 27 27 29 30 32 33 33 33
341 341 341 341 341 341 340 340 340 341 342 343 342 342 342 342 343 343 343 343 343 342 340 340 340 340 340 340 340 341 341 342 342 342 342 342 342 342 342 343 342 343 343 342 341 345 350 356 2 14 22 21 22 26 29 30 29 27 26 25 26 27 29 31 33 34 35 35 35
340 341 340 340 340 340 339 339 340 341 342 342 342 342 343 343 343 343 343 342 341 340 341 341 342 342 342 342 342 342 342 343 343 343 343 342 343 343 343 343 343 343 343 342 341 342 346 351 356 15 27 22 22 23 24 26 27 27 26 25 25 26 28 31 35 37 38 38 39
340 340 340 340 339 338 338 339 339 340 341 342 342 343 343 343 343 343 343 343 341 341 342 343 343 343 343 344 343 343 344 344 343 343 343 344 343 343 344 344 344 344 343 342 341 340 343 349 360 29 44 28 24 20 19 20 23 25 26 25 24 23 25 29 35 40 42 42 43
340 339 339 339 338 338 338 338 339 340 341 341 343 343 343 343 343 344 344 344 342 341 342 342 342 342 342 342 343 343 344 345 344 345 345 345 345 346 346 346 345 344 343 342 341 340 342 351 10 43 56 32 27 22 18 18 21 24 26 25 23 22 23 28 36 44 47 46 47
339 339 338 338 337 337 337 338 339 340 341 342 343 343 343 343 343 344 344 343 342 342 342 343 343 342 342 343 343 344 345 346 347 347 347 347 347 347 347 347 345 344 344 343 342 341 344 353 16 44 53 34 30 25 22 21 24 27 29 27 25 23 24 28 36 46 53 53 53
338 338 337 337 337 337 337 338 338 339 340 341 342 343 343 343 343 343 343 342 342 342 343 344 345 345 345 345 346 346 347 347 348 348 348 349 349 349 348 347 345 346 346 344 343 342 344 353 15 36 42 34 33 31 28 28 31 33 33 32 29 28 28 29 34 45 56 60 59
338 337 337 336 337 337 337 337 337 338 339 341 342 342 343 342 342 342 342 342 342 343 344 345 346 346 346 346 346 346 347 348 349 349 350 350 350 350 349 348 348 350 350 346 344 342 344 352 11 31 36 33 36 37 36 36 38 39 39 38 36 34 32 31 34 42 56 68 68
337 337 336 336 336 336 337 337 337 338 339 340 341 342 342 341 341 341 342 342 343 343 343 344 344 344 344 344 343 344 347 350 350 350 351 353 353 352 351 350 351 354 354 350 346 343 344 351 9 30 34 35 40 44 45 45 45 45 44 43 41 40 37 35 35 40 52 70 75
336 336 336 336 336 335 336 336 337 337 338 339 340 341 341 341 340 340 341 341 341 341 341 341 341 342 343 343 343 344 347 351 351 352 353 355 356 355 353 352 354 356 356 352 348 344 343 349 5 29 35 38 46 52 54 53 52 50 48 46 45 44 42 41 39 40 46 59 69
334 335 336 336 335 335 335 335 335 335 336 337 339 341 341 341 340 339 340 341 342 341 340 339 339 341 343 344 344 346 349 351 353 355 357 358 358 357 355 355 355 355 355 351 349 345 344 348 1 27 37 42 54 62 64 62 58 54 51 48 47 46 46 45 44 43 43 48 55
332 334 335 335 335 334 333 333 332 333 334 336 339 340 341 341 339 339 341 342 343 343 341 339 339 341 344 345 345 347 351 352 354 357 359 360 359 358 357 357 355 354 352 349 348 346 347 351 2 27 41 48 65 73 73 70 65 59 54 51 48 46 47 47 48 46 45 44 46
331 332 333 334 334 334 332 330 330 331 333 336 338 339 340 340 341 342 343 343 344 344 342 341 341 343 345 347 347 349 351 352 354 358 0 1 360 359 358 357 355 353 351 349 349 350 354 359 10 31 52 61 76 82 80 77 72 65 60 55 53 50 48 48 49 48 47 45 45
Height
863 862 860 859 857 855 853 852 850 848 847 845 843 840 838 836 834 832 830 828 826 824 821 819 817 814 812 810 808 806 803 801 799 797 794 792 789 787 784 782 779 777 774 772 769 767 764 761 759 756 754 752 749 748 747 745 744 743 742 741 739 738 737 736 735 734 734 733 732
863 862 860 859 857 855 853 852 850 848 847 845 843 840 838 836 834 832 830 828 826 824 821 819 816 814 812 809 807 805 803 800 798 796 793 791 788 786 783 781 778 776 773 770 768 765 762 759 757 754 751 748 747 745 743 743 742 740 739 738 737 736 735 733 732 731 731 730 729
863 861 860 858 857 855 853 852 850 848 846 844 843 840 838 837 834 833 830 828 826 823 821 818 816 813 811 809 807 804 802 800 798 795 793 790 787 785 782 780 777 774 772 769 766 763 761 758 754 751 748 746 744 742 741 739 739 738 737 735 734 733 732 731 730 729 728 728 727
863 861 859 858 857 855 853 852 850 848 846 844 842 840 838 837 835 833 830 828 825 823 821 818 815 813 811 808 806 803 801 799 797 794 792 789 786 784 781 779 776 773 770 768 765 762 759 756 753 749 746 744 742 740 738 737 736 735 734 733 732 731 730 728 728 727 726 725 724
862 861 859 858 857 855 853 852 850 848 846 844 842 840 838 836 834 832 830 827 825 822 820 818 815 813 810 808 805 803 800 798 796 794 791 788 785 783 780 778 775 773 769 767 764 761 758 754 751 748 746 743 741 738 737 735 734 733 732 731 730 728 728 726 725 724 723 723 722
862 861 859 858 856 855 853 851 849 848 846 843 842 840 838 836 834 832 829 827 824 822 819 817 815 812 810 807 805 802 800 798 795 793 790 788 785 782 780 777 775 772 769 766 763 760 757 754 751 748 746 743 740 738 736 734 733 731 730 728 727 726 725 724 723 722 721 720 720
862 861 859 857 856 854 853 851 849 847 845 843 841 840 838 836 833 831 829 827 824 821 819 816 814 812 809 807 804 802 799 797 795 793 790 787 784 782 780 777 774 772 769 766 763 760 757 754 752 749 746 743 740 738 736 734 732 730 728 727 725 724 723 722 721 720 719 719 718
862 860 859 857 855 853 852 850 848 846 845 843 841 839 837 835 833 830 828 825 823 821 818 816 813 811 809 807 804 801 799 797 795 792 790 787 784 782 779 777 774 772 769 766 763 760 758 755 752 749 746 743 741 738 735 733 731 729 727 725 723 722 721 720 719 718 718 717 717
861 860 858 856 855 853 851 849 848 846 844 843 841 839 837 834 832 830 827 825 823 820 818 816 813 811 808 806 803 801 799 797 794 792 790 787 785 782 779 777 774 772 769 766 763 761 758 755 753 750 747 744 741 738 736 733 731 728 726 724 722 720 719 718 718 717 716 716 715
861 859 857 856 854 852 850 848 847 845 843 842 840 838 836 834 832 829 827 825 822 820 817 815 813 810 808 805 803 801 798 797 794 792 789 787 784 782 780 777 775 772 769 766 763 761 758 755 753 750 748 745 742 739 736 733 731 728 726 724 722 720 719 718 718 716 715 715 714
861 859 857 855 853 852 850 848 846 844 843 841 839 837 835 833 831 829 827 824 822 819 817 814 812 809 807 805 803 800 798 796 794 792 789 786 784 782 780 778 775 772 769 766 764 761 758 756 753 751 748 745 742 739 736 733 731 729 727 725 723 721 720 719 718 717 715 714 713
860 858 857 855 853 851 849 847 845 844 842 840 838 837 834 832 830 828 826 823 821 818 816 813 811 809 807 804 802 800 798 796 793 791 788 786 783 781 779 777 775 772 769 767 764 762 759 757 754 751 748 746 743 740 737 734 732 729 728 726 724 722 720 719 718 717 715 714 713
860 858 856 854 853 851 849 847 845 843 842 840 838 836 834 832 830 828 825 823 820 818 815 813 811 808 806 804 801 799 797 795 793 791 788 786 783 781 779 777 774 772 769 767 764 762 759 757 754 752 749 746 744 741 738 735 733 730 728 726 724 723 721 719 718 717 715 714 713
860 858 856 854 853 851 849 847 845 843 841 839 838 836 833 831 829 827 825 822 820 817 815 812 810 808 805 803 801 799 797 794 792 790 787 785 783 780 778 776 774 771 769 766 764 762 759 757 754 752 749 747 744 742 739 736 734 732 729 728 725 723 722 720 718 717 715 714 713
859 858 856 854 852 850 849 847 845 843 841 839 838 835 833 831 829 827 824 822 819 817 814 812 809 807 805 803 801 798 796 793 791 789 786 783 782 780 778 775 773 771 768 766 764 762 759 757 755 753 750 748 745 742 740 737 735 732 730 728 726 724 723 721 719 717 716 714 713
859 857 856 854 852 850 849 847 845 843 841 839 838 835 833 831 828 826 824 821 819 816 814 811 809 806 804 802 800 798 795 793 791 788 785 783 781 779 777 774 772 770 768 765 763 761 759 757 755 753 750 748 745 743 740 738 735 733 731 729 727 725 723 722 720 718 716 715 713
859 857 855 854 852 850 849 847 845 843 842 839 837 835 833 831 828 826 824 821 818 816 813 810 808 806 803 801 799 797 795 792 790 788 785 783 781 778 776 774 772 769 767 765 763 760 758 756 754 753 750 748 746 743 741 738 736 733 732 729 728 726 724 722 720 719 717 715 713
858 857 855 853 852 850 848 847 845 843 841 839 837 835 833 831 828 826 823 821 818 815 812 809 807 805 803 801 798 797 794 792 789 787 784 783 781 778 776 773 771 768 766 764 762 760 758 756 754 752 750 748 746 743 741 738 736 734 732 730 728 726 724 722 721 719 718 716 714
858 857 855 853 851 850 848 846 845 843 841 839 837 834 833 830 828 825 823 820 817 815 812 809 807 804 802 800 798 796 794 792 789 786 784 782 780 778 775 773 770 767 765 763 762 759 758 756 754 752 750 748 746 743 741 739 736 734 732 730 728 726 724 723 721 720 718 717 714
858 857 855 853 851 849 848 846 844 842 840 838 836 834 832 829 827 825 822 819 817 814 812 809 806 804 802 799 797 795 793 791 788 786 783 782 780 778 775 772 769 767 764 762 760 758 757 755 754 752 750 748 746 743 741 739 737 734 732 730 728 727 725 723 722 720 718 717 714
858 857 855 853 851 849 848 846 844 842 840 838 835 833 831 829 827 824 822 819 816 813 811 808 806 803 801 799 797 795 793 790 788 786 783 782 779 777 774 772 769 767 763 761 759 758 756 755 753 752 750 748 746 743 741 739 737 735 733 731 729 728 726 724 722 721 719 717 715
858 857 855 853 851 849 847 845 843 841 839 837 835 833 831 828 826 824 821 818 815 813 810 808 805 803 801 799 797 795 792 790 787 785 783 781 779 777 774 772 769 766 763 759 758 757 756 755 753 752 750 748 746 744 742 740 738 736 733 732 730 728 726 725 723 722 720 718 716
858 856 854 853 851 849 847 845 843 841 838 836 834 832 830 828 826 823 820 817 815 812 810 807 805 803 801 799 797 794 792 789 787 785 783 781 779 776 774 772 770 766 763 759 758 757 756 754 753 752 750 748 746 744 743 741 739 736 734 732 730 729 727 726 724 723 721 719 718
858 856 854 852 850 848 847 844 842 840 838 836 833 832 830 828 825 822 819 816 814 811 809 807 805 803 801 798 796 794 792 789 787 784 782 780 778 776 774 772 770 767 763 759 758 758 756 754 753 752 750 748 747 745 743 741 739 737 735 733 731 730 728 727 725 724 722 721 719
858 856 854 852 850 848 846 844 842 840 838 835 833 831 829 827 824 821 818 816 813 811 808 806 804 803 800 798 796 793 791 789 787 785 783 780 778 776 774 772 770 767 764 760 759 758 756 755 753 752 751 749 747 746 744 742 740 738 736 734 733 731 730 728 727 725 723 722 721
857 855 853 852 850 848 846 844 842 839 837 835 833 831 829 827 824 821 818 815 813 810 808 806 804 802 800 798 795 793 791 789 787 785 783 781 779 777 774 772 770 768 765 761 760 758 757 756 754 753 751 750 748 746 745 743 741 739 737 736 734 733 731 730 728 727 725 724 723
857 855 853 851 849 848 845 843 841 839 837 835 833 831 829 826 823 821 818 815 813 810 808 806 804 803 800 798 795 793 791 789 787 785 783 782 779 777 775 773 770 768 765 763 761 759 758 756 755 754 752 750 749 747 746 744 742 740 738 737 736 734 733 731 730 728 727 726 725
857 855 853 851 849 847 845 843 841 839 837 835 833 831 828 826 823 820 818 815 813 810 808 806 804 803 801 798 796 793 791 790 788 786 784 782 780 778 776 773 770 768 766 763 761 760 758 757 755 754 753 751 749 748 746 745 743 742 740 738 737 736 734 733 732 730 729 728 727
857 855 853 851 849 847 845 843 841 839 837 835 833 831 828 825 823 820 818 815 813 811 809 807 805 803 801 799 796 794 792 790 788 786 784 782 781 779 777 774 771 768 766 764 762 760 758 757 755 754 753 751 750 748 747 746 744 743 742 740 738 737 736 734 733 732 731 729 728
857 855 853 851 849 847 845 843 841 839 837 835 833 831 828 825 823 820 818 816 813 812 810 808 806 803 802 799 797 794 792 790 788 786 784 783 781 779 777 774 772 769 767 764 762 760 758 757 755 754 753 751 750 749 748 747 746 744 743 741 740 738 737 736 735 733 733 731 730
857 855 853 851 849 847 845 843 841 839 837 835 833 830 828 825 823 820 818 816 814 812 810 808 806 804 802 799 797 795 793 790 788 787 785 783 781 779 777 775 772 770 767 765 763 760 758 756 754 753 752 751 750 749 749 748 747 746 744 743 741 740 738 737 736 735 734 733 732
857 855 853 851 849 847 845 843 841 839 837 835 833 830 828 825 823 821 819 817 815 812 810 808 806 803 801 799 797 795 793 791 789 787 786 784 782 780 778 775 773 770 768 766 763 761 758 755 753 752 752 751 750 750 749 748 748 747 745 744 743 741 740 738 738 736 735 734 733
857 855 853 851 849 847 844 842 840 839 837 835 833 831 828 825 823 821 819 817 815 813 810 808 806 804 802 800 798 795 793 792 790 788 786 784 782 780 778 776 773 771 769 767 764 761 758 756 753 752 752 752 751 750 749 749 748 747 746 745 743 742 741 740 739 738 737 736 735
857 855 853 851 848 846 844 842 840 838 837 835 833 831 828 826 823 821 819 817 815 813 811 809 807 805 803 801 799 797 794 793 790 788 786 784 783 780 778 776 774 772 769 767 765 762 759 757 755 753 753 752 751 750 750 749 748 748 747 746 744 743 742 741 740 739 738 738 737
856 855 853 850 848 846 844 842 840 838 837 835 833 830 828 826 823 822 820 818 815 813 811 809 807 805 803 802 799 798 795 793 791 789 787 785 783 781 779 777 774 772 769 767 765 763 760 758 756 755 754 753 752 751 750 749 749 748 748 747 745 744 743 742 740 740 739 739 738
856 855 853 850 848 846 844 842 840 838 836 835 833 830 828 826 824 822 820 818 816 813 811 809 807 805 803 802 800 798 796 794 792 790 788 785 783 781 779 777 774 772 769 767 765 763 761 759 757 756 755 754 753 752 751 750 749 749 748 747 746 745 744 743 742 740 740 740 740
856 855 853 850 848 846 844 842 840 838 836 835 833 831 829 826 824 822 820 818 816 813 811 809 808 806 804 803 801 799 797 796 793 791 788 786 783 782 779 777 774 772 769 768 766 763 761 759 758 757 755 754 754 753 752 751 750 750 749 748 747 746 745 744 743 741 741 741 741
856 854 853 851 848 846 844 842 840 838 837 835 833 831 829 827 825 822 820 819 817 814 812 810 808 807 805 803 802 800 798 796 794 792 789 787 784 782 780 778 775 772 770 768 767 764 762 760 759 757 756 755 754 754 753 752 752 751 750 749 748 747 747 746 744 743 742 743 742
856 854 853 851 848 847 844 843 841 839 837 835 833 831 829 827 825 823 821 819 817 815 813 810 809 808 806 804 802 800 798 797 794 792 790 787 785 783 781 778 776 773 771 769 767 765 763 760 759 757 756 756 755 755 754 753 753 752 751 750 749 748 748 747 746 745 744 744 744
855 854 852 851 848 847 844 843 841 839 837 835 833 831 829 828 826 823 821 819 817 815 813 811 809 808 806 805 803 801 799 797 795 793 790 788 786 784 782 779 777 774 771 769 768 766 763 761 759 757 756 756 756 755 755 754 754 753 752 751 750 750 749 748 748 747 747 746 746
855 853 852 850 848 846 844 843 841 839 837 835 834 832 830 828 826 823 821 819 817 815 813 811 809 808 806 805 803 802 800 797 795 793 790 788 786 784 782 780 777 775 772 769 768 766 764 762 760 758 757 756 756 756 756 755 755 754 753 753 752 751 750 750 749 749 748 748 748